Flag for U.S.A. Weather past 2 weeks in Boulder, Colorado, U.S.A.

Now
72 °F

Passing clouds.


Feels Like: 76 °F
Forecast: 58 / 88 °F
Wind: 3 mph from North

Location: Broomfield / Jeffco

Current Time: Sep 19, 2014 at 10:14:52 AM

Latest Report: Sep 19, 2014 at 8:47 AM


Visibility: 60 mi

Pressure: 30.03 "Hg

Humidity: 31%

Dew point: 39 °F

Location of BoulderLocation

Historic Weather in Boulder — Graph

°F

Boulder temperature yesterday

Maximum temperature yesterday: 90 °F (at 2:47 PM)
Minimum temperature yesterday: 57 °F (at 4:35 AM)
Average temperature yesterday: 68 °F

Past Weeks' High & Low Weather Summary

 TemperatureHumidityPressure
High90 °F (Sep 18, 2:47 PM)100% (Sep 4, 11:53 PM)30.50 "Hg (Sep 4, 11:53 PM)
Low32 °F (Sep 12, 2:34 AM)13% (Sep 17, 3:51 PM)29.90 "Hg (Sep 9, 11:47 AM)
Average59 °F64%30.18 "Hg
* Reported Sep 4 8:47 AM — Sep 19 8:47 AM, Boulder, Weather by CustomWeather, © 2014

Note: Actual official high and low records may vary slightly from our data, if they occured in-between our weather recording intervals... More about our weather records

Advertising

Boulder weather history for previous 24 hours

 ConditionsComfort  
Time TempWeatherWind HumidityBarometerVisibility
8:47 AM
Sep 19
72 °FPassing clouds.3 mph31%30.03 "Hg60 mi
7:47 AM68 °FPassing clouds.3 mph33%30.02 "Hg60 mi
6:53 AM64 °FPassing clouds.No wind34%30.00 "Hg60 mi
5:54 AM64 °FClear.5 mph32%29.99 "Hg10 mi
5:35 AM61 °FClear.3 mph36%29.98 "Hg10 mi
5:15 AM63 °FClear.6 mph34%29.98 "Hg10 mi
4:54 AM63 °FClear.7 mph34%29.98 "Hg10 mi
4:35 AM63 °FClear.6 mph34%29.98 "Hg10 mi
4:15 AM64 °FClear.5 mph32%29.97 "Hg10 mi
3:54 AM63 °FClear.6 mph34%29.98 "Hg10 mi
3:35 AM66 °FClear.7 mph32%29.97 "Hg10 mi
3:15 AM64 °FClear.6 mph34%29.98 "Hg10 mi
2:55 AM68 °FClear.9 mph33%29.97 "Hg10 mi
2:34 AM68 °FClear.10 mph30%29.98 "Hg10 mi
2:15 AM68 °FClear.3 mph30%29.98 "Hg10 mi
1:55 AM68 °FClear.7 mph30%29.98 "Hg10 mi
1:35 AM68 °FClear.8 mph33%29.98 "Hg10 mi
1:15 AM68 °FClear.8 mph30%29.98 "Hg10 mi
12:55 AM64 °FClear.10 mph37%29.98 "Hg10 mi
12:34 AM64 °FClear.7 mph37%29.98 "Hg10 mi
11:55 PM
Sep 18
66 °FClear.6 mph35%29.98 "Hg10 mi
11:35 PM68 °FClear.7 mph30%29.98 "Hg10 mi
11:15 PM68 °FClear.6 mph35%29.98 "Hg10 mi
9:45 PM72 °FClear.9 mph29%29.97 "Hg50 mi
8:48 PM75 °FClear.6 mph24%29.97 "Hg50 mi
6:45 PM82 °FPassing clouds.8 mph16%29.96 "Hg50 mi
4:50 PM90 °FScattered clouds.6 mph15%29.96 "Hg50 mi
3:45 PM90 °FPassing clouds.3 mph13%29.98 "Hg50 mi
2:47 PM90 °FScattered clouds.8 mph13%30.00 "Hg50 mi
1:47 PM86 °FScattered clouds.6 mph17%30.02 "Hg50 mi
12:49 PM86 °FScattered clouds.6 mph18%30.05 "Hg50 mi
Weather by CustomWeather, © 2014

See weather overviewHow to use our weather pages